STARLINK-38176, 100189

Orbit data source: Space-Track

STARLINK-38176, 100189 is a payload satellite owned by SpaceX/Seattle (US) in SSO that was launched on Sat, 01 Aug 2026 UTC launched from the Air Force Western Test Range (AFWTR). Payload-class satellites include a variety of spacecraft equipped with specific instruments for various scientific and technological missions. These include communications satellites like Starlink; space stations such as the ISS; scientific satellites like the Hubble; Earth observation satellites from companies like Planet Labs, Umbra, and HawkEye 360; GPS; miniature CubeSats for education and research; and military/defense satellites.

Loading next visibility...
Identifier
100189, 2026-175L
Orbit
SSO
Country
Flag of USUS
Related business
Manufacturer
SpaceX/Seattle
Mission
Operational spacecraft
Bus & Motor
STARLINK V2MO, Unknown motor
Mass
575 kg wet, ~530 kg dry
Launch date (UTC)
2026-08-01 (2 months ago)
Launch vehicle
Unknown
Launch site
Air Force Western Test Range (AFWTR)
Object type
Payload
Rocket body
Debris
Shape & HBR
BOX + PAN, 17.7 m
Radar Cross Section
Large (>1 m²)

Expand to show TLE details & history
Last TLE update: 8 hours ago

TLE from 8 hours ago
0 STARLINK-38176
1 A0189U 26175L   26263.88629413 -.00074990  00000-0 -52236-3 0  9991
2 A0189  97.2818 106.2879 0001999 334.1082  26.0083 15.74465359  9239
Epoch: 2026-09-20T21:16Z
TLE epoch observation values (Epoch: 2026-09-20T21:16:15.812Z)
Latitude
Longitude
147.44797°
Altitude
348.112 km
Speed
7.701 km/s
True Right ascension
07h 05m 09s
True Declination
0° 00' 00"
Sunlit
Object was in daylight at epoch
Visualization orbit readout
Latitude
Unknown
Longitude
Unknown
Altitude
Unknown
Speed
Unknown
Apparent Right ascension
Unknown
Apparent Declination
Unknown
Sunlit
N/A
Visualization observer readout
Local Sidereal Time
22:07:50
Azimuth
Unknown
Elevation
Unknown
Doppler factor
Unknown
Orbital elements
Apogee altitude
344.385 km
Perigee altitude
341.698 km
Semi-major axis
6,721.178 km
Eccentricity
0.0002
Inclination
97.2818°
RAAN
106.2879°
Arg. of periapsis
334.1082°
True anomaly
26.01835°
Mean anomaly
26.0083°
Eccentric anomaly
26.01332°
Mean motion
3.9389 °/min
Orbital period
91.4 mins
BSTAR
-0.00052236
Loading maneuver chart data...
Computing Atmospheric mass density...
Loading historical data...
Loading historical data...
Loading historical data...
Loading historical data...
Loading historical data...
Loading historical data...
Loading historical data...

Documentation

Showing up to 5 results
|